Regional Weather Roundup
Issued by NWS

Home | Current Version | Previous Version | Graphics & Text | Print | Product List | Glossary On
Versions: 1 2 3 4 5 6 7 8 9 10 11 12 13 14 15 16 17 18 19 20 21 22 23 24 25 26 27 28 29 30 31 32 33 34 35 36 37 38 39 40 41 42 43 44 45 46 47 48 49 50
000
ASUS45 KCYS 272210
RWRWY

WYOMING REGIONAL WEATHER ROUNDUP
NATIONAL WEATHER SERVICE CHEYENNE WY
400 PM MDT SUN JUL 27 2014

NOTE:  "FAIR" INDICATES FEW OR NO CLOUDS BELOW 12,000 FEET
WITH NO SIGNIFICANT WEATHER AND/OR OBSTRUCTIONS TO VISIBILITY.

WYZ001-272300-
YELLOWSTONE NATIONAL PARK

CITY           SKY/WX    TMP DP  RH WIND       PRES   REMARKS
LK YELLOWSTONE   N/A     73  51  46 VRB3      30.48F
W YELLOWSTONE  NOT AVBL

$$
WYZ002>013-054>058-071-098>099-272300-
NORTHERN WYOMING

CITY           SKY/WX    TMP DP  RH WIND       PRES   REMARKS
JACKSON        NOT AVBL
CODY           NOT AVBL
GREYBULL       SUNNY     89  30  12 CALM      30.21F
WORLAND        SUNNY     91  33  12 N8        30.23F
SHERIDAN       SUNNY     86  41  20 E7        30.28F
BUFFALO        SUNNY     83  35  18 S8        30.34F
GILLETTE       SUNNY     82  38  20 SE3       30.30F
HULETT         FAIR      79  43  27 MISG      30.34
NEWCASTLE      FAIR      82  32  16 NW8       30.30

$$
WYZ014>020-022>026-101>103-272300-
CENTRAL WYOMING

CITY           SKY/WX    TMP DP  RH WIND       PRES   REMARKS
BIG PINEY      MOSUNNY   84  23  10 W6        30.40F
PINEDALE       PTCLDY    81  25  12 NW3G18    30.42F
DUBOIS         FAIR      79  23  12 SE13G20   30.41F
LANDER         MOSUNNY   88  32  13 VRB7      30.30F
RIVERTON       SUNNY     85  28  12 E9        30.32F
CASPER         SUNNY     86  41  20 NE10      30.31F
DOUGLAS        SUNNY     86  49  27 SE12      30.33F

$$
WYZ021-027>030-104>119-272300-
SOUTHERN WYOMING

CITY           SKY/WX    TMP DP  RH WIND       PRES   REMARKS
EVANSTON       MOSUNNY   88  28  11 NE9       30.38F
KEMMERER       PTCLDY   N/A N/A N/A NE12      30.41F
ROCK SPRINGS   MOSUNNY   85  26  11 VRB6      30.36F
DIXON          FAIR      88  28  11 S6        30.36F
RAWLINS        SUNNY     86  30  13 NW9       30.38F
SARATOGA       FAIR      86  30  13 N10G18    30.40F
LARAMIE        MOSUNNY   78  53  41 S20G25    30.42F
CHEYENNE       MOSUNNY   74  55  51 S10G18    30.39F
TORRINGTON     SUNNY     84  51  31 S7        30.28F
PINE BLUFFS    FAIR      82  46  28 E7        30.33F

$$



USA.gov is the U.S. government's official web portal to all federal, state and local government web resources and services.